CDT,Max TemperatureF,Mean TemperatureF,Min TemperatureF,Max Dew PointF,MeanDew PointF,Min DewpointF,Max Humidity, Mean Humidity, Min Humidity, Max Sea Level PressureIn, Mean Sea Level PressureIn, Min Sea Level PressureIn, Max VisibilityMiles, Mean VisibilityMiles, Min VisibilityMiles, Max Wind SpeedMPH, Mean Wind SpeedMPH, Max Gust SpeedMPH,PrecipitationIn, CloudCover, Events, WindDirDegrees
2013-10-1,75,62,46,52,46,32,94,54,21,30.02,29.86,29.69,10,10,7,15,9,28,0.00,0,,263
2013-10-2,78,60,42,57,44,34,100,59,21,30.07,29.97,29.84,10,10,10,17,5,24,0.00,1,Rain-Thunderstorm,148
2013-10-3,73,66,59,66,59,55,100,90,73,29.90,29.84,29.78,10,9,2,18,9,26,0.45,6,Rain-Thunderstorm,75
2013-10-4,66,62,57,64,60,57,100,97,88,29.92,29.87,29.75,10,5,0,20,9,30,1.00,8,Fog-Rain-Thunderstorm,60
2013-10-5,64,55,46,64,46,37,100,75,51,29.87,29.80,29.74,10,10,7,10,7,,0.02,5,Rain,205
2013-10-6,53,48,44,48,43,37,100,82,58,29.87,29.74,29.70,10,10,2,12,3,20,0.03,8,Rain,288
2013-10-7,66,54,42,46,42,36,100,70,32,30.01,29.95,29.87,10,10,10,8,4,,0.00,0,,269
2013-10-8,75,60,46,46,43,37,87,55,27,30.01,29.96,29.90,10,10,10,22,10,29,0.00,0,,179
2013-10-9,75,62,50,52,47,43,88,59,33,30.08,30.04,29.99,10,10,10,16,10,23,0.00,0,,169
2013-10-10,75,62,50,52,47,45,82,60,34,30.07,29.99,29.89,10,10,10,17,9,25,0.00,0,,163
2013-10-11,73,64,55,61,55,50,88,74,50,29.90,29.79,29.68,10,10,7,32,14,43,0.02,2,Rain-Thunderstorm,163
2013-10-12,62,53,44,48,38,27,87,59,29,30.22,29.99,29.79,10,10,10,15,8,29,0.00,0,,260
2013-10-13,60,48,35,37,32,27,93,60,27,30.43,30.36,30.23,10,10,10,8,3,,0.00,0,,295
2013-10-14,59,47,35,48,37,34,100,66,39,30.39,30.18,29.89,10,10,1,21,7,30,0.10,3,Rain,129
2013-10-15,53,50,46,54,48,45,100,99,93,29.89,29.75,29.70,10,7,2,20,13,30,0.27,8,Rain,214
2013-10-16,48,44,39,46,43,37,100,95,71,29.96,29.91,29.82,10,8,3,12,7,18,0.01,6,Rain,311
2013-10-17,57,45,33,45,38,34,100,80,41,29.91,29.84,29.78,10,9,2,13,3,21,0.00,3,,256
2013-10-18,51,44,37,39,34,25,100,75,35,29.99,29.93,29.88,10,10,3,13,8,20,0.00,3,,291
2013-10-19,48,39,30,43,33,27,100,80,50,29.87,29.78,29.71,10,10,4,14,5,23,0.05,3,Rain,268
2013-10-20,57,44,30,43,34,28,100,80,51,29.89,29.74,29.61,10,10,5,15,5,25,0.00,6,Rain,236
2013-10-21,42,34,26,36,25,21,100,70,45,29.99,29.95,29.89,10,10,4,16,8,24,0.01,4,Rain,292
2013-10-22,39,32,24,30,27,25,100,80,56,30.03,29.98,29.94,10,10,10,10,2,,0.00,6,,328
2013-10-23,37,34,30,28,26,21,86,72,56,30.09,30.04,30.00,10,10,10,13,5,23,0.00,8,,292
2013-10-24,44,36,28,30,26,21,100,72,46,30.33,30.23,30.09,10,10,7,13,5,20,0.00,6,Snow,306
2013-10-25,55,40,26,36,31,27,100,70,41,30.34,30.13,29.86,10,10,7,24,7,38,0.00,1,,221
2013-10-26,48,40,30,37,30,27,93,63,43,30.10,30.02,29.86,10,10,10,16,11,25,0.00,0,,300
2013-10-27,62,45,28,36,30,27,100,64,31,30.06,29.93,29.79,10,9,2,13,5,20,0.00,0,,212
2013-10-28,44,38,33,34,30,28,87,72,53,30.35,30.28,30.05,10,10,10,18,11,25,0.00,2,,52
2013-10-29,53,45,37,43,34,28,76,66,54,30.33,30.18,30.03,10,10,7,17,9,24,0.00,6,,110
2013-10-30,57,52,48,55,50,41,100,93,67,30.03,29.86,29.64,10,4,0,14,7,18,0.04,7,Fog-Rain,134
2013-10-31,55,46,37,54,41,37,100,97,87,29.64,29.51,29.42,10,6,0,12,6,17,0.00,8,Fog,279